Hourly Data Report for March 24, 2012

All times are specified in Local Standard Time (LST). Add 1 hour to adjust for Daylight Saving Time where and when it is observed.

MIRAMICHI RCS
NEW BRUNSWICK

47°00'34.000" N
65°27'54.000" W
33.00 m
8100989
71744
ACQ

Download Data

Hourly Data (March 2012)
Hourly Data Report for March 24, 2012
TIME Temp Definition
°C
Dew Point Temp Definition
°C
Rel Hum Definition
%
Wind Dir Definition
10's deg

Wind Spd Definition
km/h
Visibility Definition
km
Stn Press Definition
kPa
Hmdx Definition


Wind Chill Definition


Weather Definition


00:00 -2.0 -13.7 40 31 9   101.22   -5 LegendNANA
01:00 -2.4 -13.1 44 31 6   101.20   -5 LegendNANA
02:00 -2.6 -12.8 45 30 9   101.25   -6 LegendNANA
03:00 -2.8 -12.9 46 32 11   101.28   -7 LegendNANA
04:00 -3.6 -12.9 48 32 9   101.29   -7 LegendNANA
05:00 -4.1 -12.5 52 31 13   101.32   -9 LegendNANA
06:00 -4.6 -12.8 53 30 9   101.42   -8 LegendNANA
07:00 -4.6 -12.8 53 29 7   101.45   -8 LegendNANA
08:00 -3.6 -13.6 46 30 13   101.44   -8 LegendNANA
09:00 -2.0 -13.2 42 30 15   101.43   -7 LegendNANA
10:00 -0.2 -14.7 33 30 13   101.37   -4 LegendNANA
11:00 1.6 -15.4 27 32 19   101.26     LegendNANA
12:00 3.6 -15.7 23 31 19   101.15     LegendNANA
13:00 5.2 -15.6 21 32 17   101.06     LegendNANA
14:00 5.6 -18.3 16 31 20   100.99     LegendNANA
15:00 6.7 -16.6 17 31 19   100.93     LegendNANA
16:00 7.1 -17.6 15 30 20   100.87     LegendNANA
17:00 6.5 -17.9 16 30 22   100.92     LegendNANA
18:00 5.3 -17.8 17 31 11   100.98     LegendNANA
19:00 3.3 -17.1 21 34 7   101.07     LegendNANA
20:00 1.9 -16.6 24 32 9   101.14     LegendNANA
21:00 0.5 -16.6 26 29 6   101.16     LegendNANA
22:00 -1.4 -14.2 37 27 4   101.17   -3 LegendNANA
23:00 -1.3 -14.3 36 25 7   101.16   -4 LegendNANA

Notes on Data Quality.

Legend

  • E = Estimated
  • M = Missing
  • NA = Not Available
Date modified: